THOR ABLESTAR R/B, 204

Orbit data source: Space-Track

THOR ABLESTAR R/B, 204 is space debris in LEO originally from a launch on Wed, 15 Nov 1961 UTC launched from the Air Force Eastern Test Range (AFETR). Debris objects in space refer to the collection of defunct objects orbiting the Earth. Examples of debris include non-operational satellites, rocket bodies, and fragments generated from explosions, collisions, or faulty payload assembly.

Loading next visibility...
Identifier
204, 1961-031C
Orbit
LEO
Country
Flag of USUS
Related business
Manufacturer
Aerojet
Mission
Spacecraft
Bus & Motor
ABLESTAR, Unknown motor
Mass
~600 kg wet, 600 kg dry
Launch date (UTC)
1961-11-15 (65 years ago)
Launch vehicle
Unknown
Launch site
Air Force Eastern Test Range (AFETR)
Object type
Payload
Rocket body
Debris
Shape & HBR
Unknown
Radar Cross Section
Large (>1 m²)

Expand to show TLE details & history
Last TLE update: 8 hours ago

TLE from 8 hours ago
0 THOR ABLESTAR R/B
1   204U 61031C   26192.23924145  .00000055  00000-0  38517-4 0  9995
2   204  32.4426 297.0080 0098211 135.1542 225.7065 13.65083303226310
Epoch: 2026-07-11T05:44Z
TLE epoch observation values (Epoch: 2026-07-11T05:44:30.461Z)
Latitude
-0°
Longitude
-78.27424°
Altitude
1,067.086 km
Speed
7.295 km/s
True Right ascension
19h 48m 01s
True Declination
0° 00' 00"
Sunlit
Object was in full shadow at epoch
Visualization orbit readout
Latitude
Unknown
Longitude
Unknown
Altitude
Unknown
Speed
Unknown
Apparent Right ascension
Unknown
Apparent Declination
Unknown
Sunlit
N/A
Visualization observer readout
Local Sidereal Time
02:17:20
Azimuth
Unknown
Elevation
Unknown
Doppler factor
Unknown
Orbital elements
Apogee altitude
1,093.331 km
Perigee altitude
948.002 km
Semi-major axis
7,398.803 km
Eccentricity
0.00982
Inclination
32.4426°
RAAN
297.008°
Arg. of periapsis
135.1542°
True anomaly
224.90783°
Mean anomaly
225.7065°
Eccentric anomaly
225.30648°
Mean motion
3.41037 °/min
Orbital period
105.56 mins
BSTAR
0.000038517
Loading maneuver chart data...
Computing Atmospheric mass density...
Loading historical data...
Loading historical data...
Loading historical data...
Loading historical data...
Loading historical data...
Loading historical data...
Loading historical data...
Other satellites on launch #31 in the year 1961 (1961-11-15 UTC)

Documentation

Showing up to 5 results
|